Regional Weather Roundup
Issued by NWS

Home | Current Version | Previous Version | Graphics & Text | Print | Product List | Glossary On
Versions: 1 2 3 4 5 6 7 8 9 10 11 12 13 14 15 16 17 18 19 20 21 22 23 24 25 26 27 28 29 30 31 32 33 34 35 36 37 38 39 40 41 42 43 44 45 46 47 48 49 50
000
ASUS45 KBOU 311907
RWRCO

WEATHER ROUNDUP FOR COLORADO
NATIONAL WEATHER SERVICE DENVER/BOULDER CO
1200 PM MST SAT JAN 31 2015

NOTE: "FAIR" INDICATES FEW OR NO CLOUDS BELOW 12000 FEET WITH NO
SIGNIFICANT WEATHER AND/OR OBSTRUCTIONS TO VISIBILITY.

COZ001>005-013-030-031-312000-
...NORTHWEST COLORADO...

CITY           SKY/WX    TMP DP  RH WIND       PRES   REMARKS
CRAIG          CLOUDY    32  29  88 SW13      29.92F WCI  22
HAYDEN         CLOUDY    30  27  86 W10       29.91F WCI  21
MEEKER         CLOUDY    33  31  92 SW9       29.92F WCI  25
MOUNT WERNER   NOT AVBL
STEAMBOAT SPGS CLOUDY    31  28  92 SW3       29.90F
WALDEN         CLOUDY    30  27  86 N8        29.87F WCI  23
$$

COZ006>008-011-312000-
...WEST CENTRAL VALLEYS...

CITY           SKY/WX    TMP DP  RH WIND       PRES   REMARKS
GRAND JUNCTION LGT RAIN  38  37  97 NW7       29.93F
MONTROSE       LGT RAIN  36  34  92 CALM      29.94F FOG
EAGLE          LGT SNOW  37  36  93 CALM      29.90F FOG
RIFLE          CLOUDY    37  34  89 CALM      29.92F
DELTA          DRIZZLE   41  39  91 NE5       29.92F
NUCLA          LGT RAIN  36  36 100 CALM      29.97F
$$

COZ017>023-064>068-312000-
...SOUTHWEST COLORADO...

CITY           SKY/WX    TMP DP  RH WIND       PRES   REMARKS
DURANGO        CLOUDY    35  33  92 CALM      29.89F
CORTEZ         CLOUDY    37  36  96 CALM      29.93F
PAGOSA SPRINGS CLOUDY    36  34  92 SW8       29.89F
TELLURIDE      CLOUDY    30  30 100 W10       29.93S FOG     WCI  21
WOLF CREEK PAS SNOW      25  25 100 SW15      29.93F VSB 1/4 WCI  12
$$

COZ009-010-012-014-032>034-037-058>063-312000-
...CENTRAL COLORADO...

CITY           SKY/WX    TMP DP  RH WIND       PRES   REMARKS
ASPEN          LGT SNOW  33  31  92 N5        29.87F FOG     WCI  29
BUENA VISTA    MIX PCPN  33  30  90 CALM      29.84F
COPPER MTN     SNOW      28  23  80 W20G25    29.89F VSB 1/2 WCI  15
BERTHOUD PASS  CLOUDY    19  14  79 NW14G20   29.88F WCI   6
COTTONWOOD PAS FOG       32  30  93 CALM      29.86F VSB 3/4
GUNNISON       CLOUDY    34  28  80 CALM      29.89F
KREMMLING      LGT SNOW  34  30  86 CALM      29.88F
LEADVILLE      LGT SNOW  29  24  82 CALM      29.85F
MONARCH PASS   SNOW      23  23 100 MISG      29.99F VSB<1/4
SALIDA         CLOUDY    36  34  92 NW3       29.91F
SUNLIGHT       SNOW      28  27  93 CALM        N/A  VSB 1/4
WILKERSON PASS SNOW     N/A N/A N/A W7        29.88F VSB 1/4
$$

COZ069>075-312000-
...SAN LUIS VALLEY/SANGRE DE CRISTO MOUNTAINS...

CITY           SKY/WX    TMP DP  RH WIND       PRES   REMARKS
ALAMOSA        CLOUDY    32  28  85 CALM      29.86F
LA VETA PASS   SNOW      28  25  86 MISG      29.84F VSB 1/2
SAGUACHE       LGT SNOW  32  30  93 S5        29.88F WCI  27
$$

COZ035-036-038>040-312000-
...NORTHERN COLORADO FRONT RANGE...

CITY           SKY/WX    TMP DP  RH WIND       PRES   REMARKS
DENVER INTL AP CLOUDY    37  27  67 VRB5      29.85F
DMNS CITY PARK   N/A     37  26  62 E2G9      29.85F
AURORA         FLURRIES  35  26  70 N2        29.85F
FRONT RANGE AP NOT AVBL
ERIE MUNI ARPT CLOUDY    38  26  62 N5        29.86F
BOULDER MUN AP CLOUDY    37  27  65 NE3       29.85F
CENTENNIAL     CLOUDY    37  26  64 VRB3      29.84F
BROOMFIELD     CLOUDY    37  27  65 N6        29.86F
FORT COLLINS   CLOUDY    39  27  60 N5        29.88F
LONGMONT       CLOUDY    43  26  52 CALM      29.88F
$$

COZ041-046-047-076>085-087-088-312000-
...PIKES PEAK/PALMER DIVIDE AND SOUTHERN FOOTHILLS...

CITY           SKY/WX    TMP DP  RH WIND       PRES   REMARKS
COLO. SPRINGS  LGT SNOW  36  32  85 CALM      29.84F FOG
A. F. ACADEMY  FLURRIES  37  25  61 NW5       29.82F
ELLICOTT       CLOUDY   N/A N/A N/A NW3       29.82F
FALCON         LGT SNOW  33  30  88 CALM      29.84F
FORT CARSON    CLOUDY    39  28  63 NW2       29.82F
LIMON          CLOUDY    37  27  67 NW10      29.83F
MONUMENT HILL  CLOUDY    32  27  80 NW5       29.83F WCI  27
TRINIDAD       PTSUNNY   43  30  60 CALM      29.82F
$$

COZ042>045-048>051-090-091-312000-
...NORTHEAST COLORADO...

CITY           SKY/WX    TMP DP  RH WIND       PRES   REMARKS
GREELEY ARPT   CLOUDY    39  25  56 NE3       29.86F
AKRON          CLOUDY    33  32  96 NW7       29.84F WCI  27
BURLINGTON     CLOUDY    36  32  85 N8        29.84F
WRAY           CLOUDY    36  33  90 N6        29.86F
STERLING       LGT RAIN  36  34  93 NE5       29.85F
HOLYOKE        NOT AVBL
FORT MORGAN    CLOUDY    37  30  74 N6        29.86F
$$

COZ086-089-092>099-312000-
...SOUTHEAST COLORADO...

CITY           SKY/WX    TMP DP  RH WIND       PRES   REMARKS
PUEBLO         CLOUDY    42  34  73 E5        29.83F
LA JUNTA       CLOUDY    41  35  79 W3        29.84F
LAMAR          CLOUDY    42  37  82 N6        29.83F
SPRINGFIELD      N/A     42  35  76 SW7       29.82F
$$


USA.gov is the U.S. government's official web portal to all federal, state and local government web resources and services.